Total_Precipitation_Accumulation
0.53 0.44 0.55 0.63 0.57 0.61 0.88 0.87 0.78 0.47 0.43 0.47 0.47 0.49 0.52 0.55 0.54 0.52 0.54 0.63 0.78 0.89 0.89 0.90 0.92 0.95 0.93 0.97 1.09 1.18 1.16 1.28 1.37 1.49 1.58 1.54 1.53 1.57 1.66 1.74 1.73 1.75 1.75 1.68
0.55 0.34 0.44 0.52 0.43 0.44 0.52 0.48 0.45 0.34 0.38 0.43 0.43 0.40 0.42 0.43 0.47 0.51 0.52 0.58 0.65 0.74 0.82 0.93 1.01 1.03 1.02 0.99 1.05 1.17 1.17 1.23 1.28 1.44 1.57 1.55 1.47 1.55 1.70 1.79 1.76 1.71 1.74 1.71
0.93 0.40 0.70 0.78 0.51 0.46 0.50 0.48 0.43 0.49 0.50 0.44 0.39 0.41 0.47 0.47 0.48 0.52 0.52 0.54 0.55 0.66 0.80 0.91 1.00 1.03 1.05 1.03 1.06 1.16 1.19 1.23 1.29 1.42 1.50 1.54 1.51 1.55 1.67 1.78 1.77 1.74 1.70 1.70
1.54 1.02 1.34 0.73 0.41 0.39 0.45 0.49 0.47 0.47 0.44 0.45 0.48 0.48 0.54 0.53 0.56 0.56 0.56 0.57 0.57 0.66 0.78 0.82 0.91 0.96 1.00 0.97 1.10 1.19 1.20 1.21 1.28 1.37 1.42 1.54 1.57 1.56 1.69 1.76 1.69 1.67 1.68 1.65
2.09 1.44 0.75 0.42 0.38 0.50 0.60 0.62 0.50 0.41 0.33 0.34 0.37 0.43 0.54 0.50 0.53 0.57 0.57 0.61 0.63 0.67 0.76 0.76 0.83 0.90 0.96 0.92 1.02 1.13 1.19 1.15 1.21 1.33 1.39 1.47 1.53 1.59 1.67 1.77 1.69 1.61 1.59 1.64
2.30 1.66 0.82 0.52 0.34 0.39 0.55 0.77 0.47 0.38 0.37 0.37 0.42 0.60 0.61 0.53 0.51 0.51 0.49 0.54 0.62 0.65 0.69 0.72 0.77 0.82 0.88 0.93 0.97 1.09 1.15 1.06 1.13 1.23 1.32 1.42 1.48 1.55 1.62 1.63 1.62 1.62 1.57 1.58
1.84 1.51 0.65 0.41 0.33 0.39 0.82 0.93 0.50 0.45 0.48 0.49 0.61 0.70 0.61 0.56 0.57 0.57 0.55 0.56 0.59 0.61 0.66 0.73 0.77 0.78 0.83 0.91 0.98 1.05 1.12 1.05 1.10 1.16 1.24 1.36 1.47 1.48 1.56 1.61 1.60 1.64 1.63 1.61
1.34 1.56 0.81 0.41 0.46 0.80 0.95 0.57 0.48 0.46 0.45 0.49 0.50 0.47 0.45 0.49 0.57 0.65 0.63 0.58 0.61 0.63 0.67 0.70 0.72 0.76 0.79 0.84 0.92 1.01 1.07 1.06 1.13 1.18 1.22 1.28 1.40 1.41 1.45 1.58 1.63 1.64 1.66 1.70
1.12 0.96 0.64 0.54 0.67 0.71 0.62 0.54 0.44 0.43 0.43 0.47 0.45 0.45 0.49 0.52 0.58 0.67 0.69 0.66 0.67 0.69 0.68 0.70 0.73 0.77 0.84 0.87 0.89 1.01 1.06 1.05 1.12 1.21 1.25 1.28 1.33 1.36 1.41 1.49 1.60 1.62 1.59 1.59
0.78 0.56 0.43 0.43 0.44 0.43 0.42 0.44 0.41 0.40 0.43 0.46 0.48 0.46 0.52 0.54 0.59 0.65 0.67 0.72 0.74 0.75 0.73 0.74 0.75 0.80 0.88 0.92 0.91 1.01 1.04 1.04 1.10 1.17 1.23 1.28 1.25 1.22 1.25 1.37 1.51 1.54 1.53 1.47
0.59 0.40 0.38 0.36 0.35 0.37 0.34 0.31 0.31 0.32 0.34 0.39 0.43 0.46 0.52 0.56 0.61 0.68 0.69 0.73 0.75 0.77 0.79 0.81 0.79 0.83 0.90 0.93 0.94 1.01 0.98 0.97 1.04 1.08 1.17 1.28 1.27 1.22 1.22 1.23 1.44 1.62 1.58 1.52
0.58 0.44 0.54 0.44 0.36 0.36 0.35 0.33 0.34 0.35 0.33 0.31 0.37 0.45 0.48 0.52 0.56 0.66 0.72 0.72 0.74 0.76 0.80 0.86 0.85 0.87 0.91 0.95 0.95 0.97 0.98 0.95 0.99 1.03 1.09 1.18 1.22 1.28 1.42 1.39 1.42 1.45 1.48 1.57
0.48 0.37 0.38 0.36 0.32 0.32 0.34 0.34 0.33 0.35 0.37 0.35 0.34 0.40 0.45 0.50 0.55 0.62 0.68 0.72 0.76 0.80 0.83 0.88 0.89 0.91 0.95 0.95 0.97 1.00 1.00 0.98 0.99 1.02 1.06 1.12 1.12 1.12 1.29 1.45 1.50 1.46 1.39 1.43
0.31 0.31 0.30 0.27 0.29 0.30 0.32 0.31 0.29 0.29 0.32 0.34 0.34 0.36 0.39 0.44 0.49 0.58 0.70 0.76 0.77 0.78 0.81 0.85 0.88 0.94 1.00 1.02 1.02 1.02 1.02 1.08 1.08 1.05 1.08 1.14 1.12 1.06 1.08 1.17 1.28 1.37 1.41 1.41
0.24 0.28 0.29 0.26 0.26 0.28 0.32 0.31 0.30 0.31 0.32 0.33 0.32 0.34 0.37 0.43 0.49 0.62 0.72 0.75 0.75 0.76 0.81 0.84 0.86 0.94 0.99 1.07 1.10 1.03 1.05 1.10 1.12 1.09 1.12 1.17 1.15 1.12 1.11 1.11 1.13 1.18 1.26 1.38
0.25 0.24 0.23 0.24 0.26 0.29 0.32 0.34 0.35 0.37 0.38 0.37 0.37 0.38 0.41 0.43 0.47 0.56 0.66 0.72 0.75 0.79 0.84 0.85 0.90 0.99 1.03 1.09 1.12 1.09 1.11 1.22 1.24 1.18 1.16 1.21 1.23 1.23 1.20 1.17 1.18 1.16 1.19 1.29
0.31 0.27 0.26 0.26 0.26 0.28 0.33 0.37 0.39 0.38 0.39 0.39 0.40 0.41 0.40 0.41 0.42 0.48 0.58 0.68 0.74 0.79 0.83 0.88 0.94 0.98 1.03 1.10 1.15 1.13 1.14 1.21 1.30 1.22 1.17 1.24 1.31 1.30 1.25 1.24 1.24 1.19 1.16 1.26
0.31 0.30 0.29 0.29 0.29 0.30 0.32 0.35 0.37 0.36 0.38 0.39 0.37 0.37 0.39 0.42 0.45 0.50 0.57 0.62 0.65 0.66 0.74 0.86 0.95 1.00 1.01 1.10 1.17 1.15 1.15 1.19 1.23 1.22 1.21 1.28 1.36 1.34 1.31 1.29 1.26 1.24 1.20 1.25
0.22 0.24 0.24 0.24 0.25 0.27 0.29 0.33 0.34 0.32 0.34 0.35 0.35 0.38 0.42 0.45 0.48 0.50 0.52 0.53 0.58 0.67 0.76 0.86 0.99 0.95 0.96 1.06 1.19 1.17 1.16 1.20 1.23 1.24 1.21 1.32 1.38 1.34 1.31 1.29 1.28 1.24 1.26 1.26
0.21 0.22 0.23 0.24 0.22 0.24 0.28 0.29 0.31 0.30 0.31 0.33 0.35 0.38 0.42 0.45 0.47 0.49 0.50 0.53 0.63 0.78 0.82 0.91 0.94 0.94 0.96 0.99 1.10 1.14 1.20 1.22 1.25 1.25 1.23 1.25 1.30 1.34 1.32 1.30 1.29 1.28 1.30 1.33
0.24 0.24 0.24 0.25 0.25 0.25 0.28 0.29 0.31 0.31 0.31 0.34 0.38 0.41 0.44 0.44 0.46 0.50 0.54 0.57 0.60 0.71 0.80 0.91 0.94 0.99 1.02 1.06 1.13 1.16 1.23 1.25 1.27 1.30 1.29 1.28 1.28 1.31 1.30 1.31 1.31 1.29 1.30 1.32
0.30 0.30 0.30 0.30 0.29 0.29 0.29 0.29 0.32 0.35 0.35 0.39 0.41 0.43 0.44 0.43 0.45 0.49 0.55 0.63 0.67 0.80 0.87 0.89 0.96 1.12 1.22 1.22 1.12 1.14 1.20 1.22 1.26 1.29 1.31 1.28 1.29 1.32 1.30 1.30 1.33 1.30 1.27 1.29
0.34 0.35 0.36 0.35 0.33 0.32 0.31 0.31 0.34 0.39 0.42 0.43 0.45 0.47 0.48 0.49 0.51 0.56 0.61 0.62 0.70 0.87 0.94 0.97 1.13 1.30 1.35 1.20 1.11 1.13 1.18 1.20 1.23 1.28 1.32 1.31 1.30 1.31 1.32 1.30 1.30 1.30 1.28 1.26
0.38 0.39 0.41 0.41 0.39 0.36 0.36 0.38 0.39 0.43 0.48 0.50 0.51 0.54 0.57 0.56 0.55 0.56 0.66 0.74 0.83 0.95 0.99 1.09 1.24 1.34 1.34 1.20 1.13 1.16 1.20 1.21 1.21 1.27 1.31 1.32 1.33 1.33 1.32 1.31 1.32 1.26 1.22 1.19
0.42 0.43 0.42 0.43 0.45 0.46 0.46 0.46 0.46 0.49 0.52 0.53 0.54 0.56 0.60 0.63 0.67 0.68 0.69 0.76 0.88 0.97 1.00 1.08 1.18 1.27 1.26 1.21 1.17 1.19 1.22 1.25 1.29 1.34 1.34 1.33 1.33 1.33 1.32 1.28 1.27 1.25 1.22 1.18
0.46 0.47 0.48 0.50 0.54 0.55 0.55 0.54 0.56 0.57 0.57 0.58 0.58 0.59 0.63 0.67 0.71 0.74 0.78 0.82 0.90 0.97 0.99 1.04 1.10 1.18 1.20 1.21 1.20 1.21 1.23 1.28 1.32 1.30 1.27 1.28 1.27 1.28 1.27 1.24 1.20 1.18 1.18 1.16
0.52 0.52 0.52 0.54 0.56 0.60 0.63 0.63 0.65 0.67 0.67 0.67 0.69 0.68 0.69 0.73 0.77 0.81 0.84 0.89 0.94 0.99 1.01 1.05 1.10 1.15 1.21 1.23 1.25 1.26 1.25 1.24 1.24 1.25 1.26 1.26 1.23 1.23 1.22 1.20 1.19 1.16 1.15 1.12